Date String (YYYY-MM-DD hh:mm:ss) UTC,Instrument flags,absolute air pressure of the measurement (hPa),sample flow rate (lpm),inlet stack bypass flow (lpm),air temperature of the measurement (°C),ambient temperature measured by the external sensor (°C),aerosol sample conditioner tube jacket temperature (°C),OPC LED temperature (°C),internal box temperature (°C),relative humidity of the measurement (%),span deviation,mass concentration of particles derived from Lorenz-Mie calculation of OPC scattering (μg/m³),mass concentration of particles derived from Lorenz-Mie calculation of OPC scattering (μg/m³),mass concentration of particles derived from Lorenz-Mie calculation of OPC scattering (μg/m³)
DateTimeUTC,F1_M11,P_M11,Q1_M11,Q2_M11,T1_M11,T2_M11,T3_M11,T4_M11,T5_M11,U1_M11,ZSPAN_M11,X0_M11,X2_M11,X1_M11
2024-05-17 11:00:00,SystemResetWarning,0823.0,5.00,000.00,025.4,024.8,000.0,033.5,027.2,015.4,0000.0,0004.88,0002.66,0002.01
2024-05-17 11:01:00,SystemResetWarning,0823.0,4.99,000.00,025.5,024.8,000.0,033.5,027.2,015.4,0000.0,0004.92,0002.65,0002.02
2024-05-17 11:02:00,SystemResetWarning,0822.9,4.99,000.00,025.5,024.8,000.0,033.5,027.3,015.4,0000.0,0005.06,0002.71,0002.02
2024-05-17 11:03:00,SystemResetWarning,0822.8,5.00,000.00,025.5,024.8,000.0,033.5,027.3,015.2,0000.0,0005.15,0002.72,0002.02
2024-05-17 11:04:00,SystemResetWarning,0822.9,5.00,000.00,025.5,024.9,000.0,033.6,027.3,015.3,0000.0,0005.24,0002.74,0002.01
2024-05-17 11:05:00,SystemResetWarning,0823.0,5.01,000.00,025.5,024.9,000.0,033.6,027.3,015.4,0000.0,0005.25,0002.73,0002.00
2024-05-17 11:06:00,SystemResetWarning,0823.1,5.01,000.00,025.6,024.9,000.0,033.6,027.3,015.5,0000.0,0005.26,0002.71,0002.00
2024-05-17 11:07:00,SystemResetWarning,0822.9,5.00,000.00,025.6,024.9,000.0,033.6,027.3,015.5,0000.0,0005.35,0002.73,0002.00
2024-05-17 11:08:00,SystemResetWarning,0822.8,5.00,000.00,025.6,024.9,000.0,033.6,027.4,015.5,0000.0,0005.44,0002.74,0001.98
2024-05-17 11:09:00,SystemResetWarning,0822.9,4.99,000.00,025.6,024.9,000.0,033.6,027.4,015.5,0000.0,0005.07,0002.69,0001.97
2024-05-17 11:10:00,SystemResetWarning,0822.9,5.00,000.00,025.6,025.0,000.0,033.7,027.4,015.3,0000.0,0005.33,0002.63,0001.96
2024-05-17 11:11:00,SystemResetWarning,0822.9,5.00,000.00,025.7,025.0,000.0,033.7,027.4,015.2,0000.0,0005.88,0002.61,0001.96
2024-05-17 11:12:00,SystemResetWarning,0823.1,5.00,000.00,025.7,025.0,000.0,033.7,027.4,015.3,0000.0,0005.81,0002.62,0001.96
2024-05-17 11:13:00,SystemResetWarning,0823.0,5.00,000.00,025.7,025.0,000.0,033.7,027.5,015.4,0000.0,0005.68,0002.54,0001.94
2024-05-17 11:14:00,SystemResetWarning,0822.9,5.00,000.00,025.7,025.0,000.0,033.7,027.5,015.4,0000.0,0005.85,0002.50,0001.92
2024-05-17 11:15:00,SystemResetWarning,0822.9,5.00,000.00,025.7,025.0,000.0,033.7,027.5,015.4,0000.0,0005.78,0002.48,0001.92
2024-05-17 11:16:00,SystemResetWarning,0822.9,5.00,000.00,025.7,025.0,000.0,033.8,027.5,015.5,0000.0,0005.78,0002.49,0001.91
2024-05-17 11:17:00,SystemResetWarning,0822.9,4.99,000.00,025.7,025.0,000.0,033.8,027.5,015.3,0000.0,0005.78,0002.50,0001.91
2024-05-17 11:18:00,SystemResetWarning,0822.9,4.99,000.00,025.8,025.1,000.0,033.8,027.5,015.1,0000.0,0005.73,0002.49,0001.90
2024-05-17 11:19:00,SystemResetWarning,0822.8,5.00,000.00,025.8,025.1,000.0,033.8,027.5,015.2,0000.0,0005.89,0002.57,0001.92
2024-05-17 11:20:00,SystemResetWarning,0823.0,5.00,000.00,025.8,025.1,000.0,033.8,027.5,015.2,0000.0,0005.97,0002.65,0001.93
2024-05-17 11:21:00,SystemResetWarning,0823.0,5.00,000.00,025.8,025.1,000.0,033.8,027.5,014.9,0000.0,0005.45,0002.70,0001.94
2024-05-17 11:22:00,SystemResetWarning,0823.0,5.01,000.00,025.8,025.1,000.0,033.9,027.6,015.0,0000.0,0004.94,0002.75,0001.94
2024-05-17 11:23:00,SystemResetWarning,0822.9,5.00,000.00,025.8,025.1,000.0,033.9,027.6,015.0,0000.0,0004.94,0002.77,0001.94
2024-05-17 11:24:00,SystemResetWarning,0822.9,5.01,000.00,025.8,025.1,000.0,033.9,027.6,014.9,0000.0,0005.21,0002.84,0001.95
2024-05-17 11:25:00,SystemResetWarning,0823.1,5.01,000.00,025.8,025.1,000.0,033.9,027.6,015.0,0000.0,0005.04,0002.89,0001.97
2024-05-17 11:26:00,SystemResetWarning,0823.0,5.01,000.00,025.8,025.1,000.0,033.9,027.6,015.3,0000.0,0005.28,0002.94,0001.98
2024-05-17 11:27:00,SystemResetWarning,0823.1,4.98,000.00,025.9,025.1,000.0,033.9,027.6,015.3,0000.0,0005.55,0002.93,0001.98
2024-05-17 11:28:00,SystemResetWarning,0822.9,4.99,000.00,025.9,025.1,000.0,033.9,027.6,015.5,0000.0,0006.52,0002.96,0001.99
2024-05-17 11:29:00,SystemResetWarning,0822.9,5.00,000.00,025.9,025.1,000.0,033.9,027.6,015.5,0000.0,0006.62,0002.97,0001.98
2024-05-17 11:30:00,SystemResetWarning,0822.9,5.01,000.00,025.9,025.1,000.0,033.9,027.6,015.5,0000.0,0006.49,0002.94,0001.99
2024-05-17 11:31:00,SystemResetWarning,0822.8,5.00,000.00,025.9,025.1,000.0,034.0,027.6,015.4,0000.0,0006.17,0002.86,0002.00
2024-05-17 11:32:00,SystemResetWarning,0823.2,5.00,000.00,025.9,025.2,000.0,034.0,027.6,015.4,0000.0,0006.08,0002.82,0002.01
2024-05-17 11:33:00,SystemResetWarning,0823.1,4.99,000.00,025.9,025.2,000.0,034.0,027.6,015.2,0000.0,0006.37,0002.87,0002.02
2024-05-17 11:34:00,SystemResetWarning,0823.1,4.99,000.00,025.9,025.2,000.0,034.0,027.7,015.2,0000.0,0006.38,0002.84,0002.01
2024-05-17 11:35:00,SystemResetWarning,0822.9,5.01,000.00,025.9,025.2,000.0,034.0,027.7,015.3,0000.0,0006.09,0002.77,0002.01
2024-05-17 11:36:00,SystemResetWarning,0823.1,5.00,000.00,025.9,025.2,000.0,034.0,027.7,015.2,0000.0,0005.97,0002.76,0002.00
2024-05-17 11:37:00,SystemResetWarning,0823.1,5.00,000.00,025.9,025.2,000.0,034.0,027.7,015.2,0000.0,0005.89,0002.76,0002.00
2024-05-17 11:38:00,SystemResetWarning,0823.0,5.00,000.00,025.9,025.2,000.0,034.0,027.7,015.3,0000.0,0005.80,0002.80,0002.02
2024-05-17 11:39:00,SystemResetWarning,0823.0,5.00,000.00,026.0,025.2,000.0,034.0,027.7,015.3,0000.0,0004.94,0002.79,0002.02
2024-05-17 11:40:00,SystemResetWarning,0823.0,5.00,000.00,026.0,025.2,000.0,034.0,027.7,015.4,0000.0,0004.95,0002.80,0002.03
2024-05-17 11:41:00,SystemResetWarning,0823.0,4.99,000.00,026.0,025.2,000.0,034.1,027.7,015.5,0000.0,0004.99,0002.80,0002.02
2024-05-17 11:42:00,SystemResetWarning,0822.9,4.99,000.00,026.0,025.2,000.0,034.1,027.7,015.6,0000.0,0005.21,0002.85,0002.01
2024-05-17 11:43:00,SystemResetWarning,0822.9,5.01,000.00,026.0,025.2,000.0,034.1,027.7,015.5,0000.0,0005.15,0002.86,0002.00
2024-05-17 11:44:00,SystemResetWarning,0823.1,5.00,000.00,026.0,025.2,000.0,034.1,027.7,015.5,0000.0,0004.84,0002.81,0001.99
2024-05-17 11:45:00,SystemResetWarning,0823.0,5.00,000.00,026.0,025.2,000.0,034.1,027.7,015.5,0000.0,0005.09,0002.86,0002.00
2024-05-17 11:46:00,SystemResetWarning,0823.0,5.00,000.00,026.0,025.2,000.0,034.1,027.7,015.6,0000.0,0006.08,0002.94,0002.01
2024-05-17 11:47:00,SystemResetWarning,0822.9,5.00,000.00,026.0,025.2,000.0,034.1,027.7,015.6,0000.0,0006.59,0002.96,0002.01
2024-05-17 11:48:00,SystemResetWarning,0823.0,4.99,000.00,026.0,025.2,000.0,034.1,027.7,015.5,0000.0,0006.88,0002.93,0002.01
2024-05-17 11:49:00,SystemResetWarning,0823.0,5.01,000.00,026.0,025.2,000.0,034.1,027.7,015.4,0000.0,0006.78,0002.95,0002.03
2024-05-17 11:50:00,SystemResetWarning,0823.1,5.01,000.00,026.0,025.2,000.0,034.1,027.7,015.4,0000.0,0006.93,0003.00,0002.05
2024-05-17 11:51:00,SystemResetWarning,0822.8,5.01,000.00,026.0,025.2,000.0,034.1,027.8,015.3,0000.0,0007.72,0002.99,0002.06
2024-05-17 11:52:00,SystemResetWarning,0823.0,4.99,000.00,026.0,025.3,000.0,034.1,027.8,015.3,0000.0,0007.81,0002.95,0002.07
2024-05-17 11:53:00,SystemResetWarning,0822.9,4.99,000.00,026.0,025.3,000.0,034.1,027.8,015.1,0000.0,0008.01,0002.92,0002.08
2024-05-17 11:54:00,SystemResetWarning,0822.9,5.00,000.00,026.0,025.3,000.0,034.1,027.8,015.1,0000.0,0008.51,0002.94,0002.09
2024-05-17 11:55:00,SystemResetWarning,0823.1,5.00,000.00,026.0,025.3,000.0,034.1,027.7,015.2,0000.0,0008.51,0002.92,0002.10
2024-05-17 11:56:00,SystemResetWarning,0823.0,5.00,000.00,026.0,025.3,000.0,034.2,027.8,015.2,0000.0,0008.83,0002.96,0002.13
2024-05-17 11:57:00,SystemResetWarning,0823.0,5.01,000.00,026.0,025.3,000.0,034.2,027.8,014.9,0000.0,0008.55,0002.93,0002.14
2024-05-17 11:58:00,SystemResetWarning,0822.9,5.01,000.00,026.0,025.3,000.0,034.2,027.8,014.9,0000.0,0008.29,0002.92,0002.15
2024-05-17 11:59:00,SystemResetWarning,0822.9,5.00,000.00,026.0,025.3,000.0,034.2,027.8,014.6,0000.0,0008.19,0002.99,0002.16
